Weather History for KWRI - March, 2013

Change the Weather History Date:

Tuesday, March 12, 2013

  Actual Average Record
Temperature  
Mean Temperature 50 °F -  
Max Temperature 57 °F 47 °F 70 °F (2012)
Min Temperature 44 °F 28 °F 17 °F (1998)
Degree Days  
Heating Degree Days 14    
Moisture  
Dew Point 52 °F    
Average Humidity 92    
Maximum Humidity 100    
Minimum Humidity 71    
Precipitation  
Precipitation 0.47 in - - ()
Sea Level Pressure  
Sea Level Pressure 29.80 in    
Wind  
Wind Speed 12 mph (SSW)    
Max Wind Speed 20 mph    
Max Gust Speed 33 mph    
Visibility 9 miles    
Events Rain    
Averages and records for this station are not official NWS values.
T = Trace of Precipitation, MM = Missing Value Source: NWS Daily Summary

Daily Weather History Graph

Daily Weather History Graph

Search for Another Location

Airport or City:

Trip Planner

Search our weather history database for the weather conditions in past years. The results will help you decide how hot, cold, wet, or windy it might be!

Date:

Astronomy

Mar. 12, 2013 Rise Set
Actual Time 7:14 AM EDT 7:02 PM EDT
Civil Twilight 6:47 AM EDT 7:29 PM EDT
Nautical Twilight 6:15 AM EDT 8:00 PM EDT
Astronomical Twilight 5:44 AM EDT 8:32 PM EDT
Moon 7:19 AM EDT (3/12) 8:14 PM EDT (3/12)
Length of Visible Light 12h 42m
Length of Day
11h 48m
New Moon, 1% of the Moon is Illuminated
Mar 12
New Moon
Mar 19
First Quarter
Mar 27
Full
Apr 3
Last Quarter
Apr 10
New

Hourly Weather History & Observations

Time (EDT) Temp. Windchill Dew Point Humidity Pressure Visibility Wind Dir Wind Speed Gust Speed Precip Events Conditions
12:55 AM 50.9 °F - 47.5 °F 88% 30.02 in 10.0 mi SSE 10.4 mph - N/A   Overcast
1:55 AM 52.3 °F - 47.1 °F 82% 29.99 in 10.0 mi South 11.5 mph 21.9 mph N/A   Mostly Cloudy
2:55 AM 52.9 °F - 47.1 °F 81% 29.98 in 10.0 mi South 10.4 mph - N/A   Partly Cloudy
3:55 AM 52.3 °F - 47.5 °F 84% 29.96 in 10.0 mi South 8.1 mph - N/A   Mostly Cloudy
4:09 AM 53.6 °F - 48.2 °F 82% 29.96 in 10.0 mi South 8.1 mph - N/A Rain Light Rain
4:55 AM 52.2 °F - 48.7 °F 88% 29.93 in 10.0 mi SSE 10.4 mph - 0.00 in Rain Light Rain
5:55 AM 51.8 °F - 50.0 °F 94% 29.93 in 10.0 mi South 9.2 mph - 0.01 in Rain Light Rain
6:27 AM 51.8 °F - 50.0 °F 94% 29.93 in 10.0 mi South 8.1 mph - N/A   Overcast
6:41 AM 51.8 °F - 50.0 °F 94% 29.92 in 10.0 mi South 10.4 mph - N/A Rain Light Rain
6:51 AM 51.8 °F - 50.0 °F 94% 29.92 in 10.0 mi SSE 10.4 mph - N/A   Overcast
6:55 AM 52.3 °F - 50.2 °F 92% 29.92 in 10.0 mi South 11.5 mph - 0.01 in   Overcast
7:07 AM 51.8 °F - 50.0 °F 94% 29.92 in 10.0 mi South 11.5 mph - N/A Rain Light Rain
7:55 AM 52.7 °F - 51.1 °F 94% 29.91 in 9.0 mi South 9.2 mph - 0.02 in Rain Light Rain
8:55 AM 52.7 °F - 51.4 °F 95% 29.90 in 10.0 mi South 8.1 mph - 0.01 in Rain Light Rain
9:18 AM 53.6 °F - 51.8 °F 94% 29.89 in 7.0 mi South 11.5 mph - N/A Rain Light Rain
9:21 AM 53.6 °F - 51.8 °F 94% 29.89 in 7.0 mi South 11.5 mph - N/A Rain Light Rain
9:38 AM 53.6 °F - 51.8 °F 94% 29.88 in 10.0 mi SSE 9.2 mph 18.4 mph N/A Rain Light Rain
9:53 AM 53.6 °F - 51.8 °F 94% 29.88 in 9.0 mi SSE 9.2 mph - N/A Rain Light Rain
9:55 AM 53.2 °F - 52.3 °F 97% 29.88 in 9.0 mi South 6.9 mph - 0.04 in Rain Light Rain
10:04 AM 53.6 °F - 51.8 °F 94% 29.87 in 10.0 mi SSE 11.5 mph 16.1 mph N/A Rain Light Rain
10:14 AM 53.6 °F - 51.8 °F 94% 29.87 in 8.0 mi South 8.1 mph - N/A Rain Light Rain
10:16 AM 53.6 °F - 51.8 °F 94% 29.87 in 8.0 mi South 8.1 mph - N/A Rain Light Rain
10:17 AM 53.6 °F - 51.8 °F 94% 29.87 in 8.0 mi South 9.2 mph - N/A Rain Light Rain
10:20 AM 53.6 °F - 53.6 °F 100% 29.86 in 9.0 mi South 8.1 mph - N/A Rain Light Rain
10:22 AM 53.6 °F - 53.6 °F 100% 29.86 in 9.0 mi South 11.5 mph 16.1 mph N/A Rain Light Rain
10:24 AM 53.6 °F - 53.6 °F 100% 29.86 in 9.0 mi South 11.5 mph - N/A Rain Light Rain
10:25 AM 53.6 °F - 53.6 °F 100% 29.86 in 9.0 mi South 10.4 mph - N/A Rain Light Rain
10:50 AM 53.6 °F - 53.6 °F 100% 29.84 in 8.0 mi South 10.4 mph - N/A Rain Light Rain
10:52 AM 53.6 °F - 53.6 °F 100% 29.84 in 8.0 mi SSE 12.7 mph - N/A Rain Light Rain
10:54 AM 53.6 °F - 53.6 °F 100% 29.84 in 9.0 mi SSE 12.7 mph - N/A Rain Light Rain
10:55 AM 54.1 °F - 53.2 °F 97% 29.83 in 9.0 mi SSE 11.5 mph - 0.04 in Rain Light Rain
11:46 AM 55.4 °F - 53.6 °F 94% 29.81 in 8.0 mi SSE 11.5 mph 20.7 mph N/A Rain Light Rain
11:55 AM 54.7 °F - 54.0 °F 97% 29.81 in 9.0 mi SSE 12.7 mph 23.0 mph 0.04 in Rain Light Rain
11:56 AM 55.4 °F - 53.6 °F 94% 29.81 in 9.0 mi SSE 11.5 mph 23.0 mph N/A Rain Light Rain
11:57 AM 55.4 °F - 53.6 °F 94% 29.80 in 9.0 mi South 11.5 mph 23.0 mph N/A Rain Light Rain
12:02 PM 55.4 °F - 53.6 °F 94% 29.80 in 10.0 mi South 12.7 mph 21.9 mph N/A Rain Light Rain
12:07 PM 55.4 °F - 53.6 °F 94% 29.80 in 10.0 mi South 12.7 mph 21.9 mph N/A Rain Light Rain
12:09 PM 55.4 °F - 53.6 °F 94% 29.80 in 9.0 mi South 13.8 mph 23.0 mph N/A Rain Light Rain
12:26 PM 55.4 °F - 53.6 °F 94% 29.79 in 5.0 mi South 12.7 mph 24.2 mph N/A Rain Light Rain
12:36 PM 55.4 °F - 55.4 °F 100% 29.79 in 7.0 mi South 17.3 mph 21.9 mph N/A Rain Rain
12:40 PM 55.4 °F - 55.4 °F 100% 29.78 in 6.0 mi South 16.1 mph 25.3 mph N/A Rain Rain
12:55 PM 55.4 °F - 54.7 °F 97% 29.77 in 5.0 mi South 15.0 mph 26.5 mph 0.09 in Rain Rain
1:00 PM 55.4 °F - 55.4 °F 100% 29.77 in 5.0 mi South 13.8 mph 26.5 mph N/A Rain Rain
1:55 PM 56.3 °F - 55.4 °F 97% 29.72 in 6.0 mi South 18.4 mph 26.5 mph 0.09 in Rain Light Rain
2:19 PM 57.2 °F - 55.4 °F 94% 29.69 in 9.0 mi South 16.1 mph 25.3 mph N/A Rain Light Rain
2:38 PM 57.2 °F - 55.4 °F 94% 29.68 in 10.0 mi South 17.3 mph 33.4 mph N/A Rain Light Rain
2:55 PM 57.4 °F - 56.3 °F 96% 29.67 in 7.0 mi South 17.3 mph 28.8 mph 0.05 in Rain Light Rain
2:59 PM 57.2 °F - 55.4 °F 94% 29.67 in 4.0 mi South 17.3 mph 25.3 mph N/A Rain Rain
3:09 PM 57.2 °F - 57.2 °F 100% 29.68 in 3.0 mi SSW 17.3 mph 25.3 mph N/A Rain Rain
3:13 PM 57.2 °F - 57.2 °F 100% 29.68 in 2.5 mi SSW 17.3 mph 25.3 mph N/A Rain Rain
3:17 PM 57.2 °F - 57.2 °F 100% 29.68 in 3.0 mi SSW 15.0 mph 31.1 mph N/A Rain Light Rain
3:23 PM 57.2 °F - 57.2 °F 100% 29.68 in 4.0 mi SSW 19.6 mph 31.1 mph N/A Rain Light Rain
3:30 PM 57.2 °F - 57.2 °F 100% 29.68 in 4.0 mi South 17.3 mph 27.6 mph N/A Rain Light Rain
3:42 PM 57.2 °F - 57.2 °F 100% 29.67 in 9.0 mi South 16.1 mph 24.2 mph N/A   Overcast
3:43 PM 57.2 °F - 57.2 °F 100% 29.67 in 10.0 mi South 15.0 mph 24.2 mph N/A   Overcast
3:50 PM 57.2 °F - 57.2 °F 100% 29.68 in 10.0 mi SSW 13.8 mph 21.9 mph N/A   Overcast
3:55 PM 57.9 °F - 57.0 °F 97% 29.68 in 10.0 mi SSW 17.3 mph - 0.07 in   Overcast
4:17 PM 57.2 °F - 57.2 °F 100% 29.68 in 8.0 mi SW 13.8 mph - N/A Rain Light Rain
4:23 PM 57.2 °F - 57.2 °F 100% 29.68 in 8.0 mi SW 16.1 mph - N/A Rain Light Rain
4:24 PM 57.2 °F - 57.2 °F 100% 29.68 in 8.0 mi SW 17.3 mph - N/A   Overcast
4:38 PM 57.2 °F - 57.2 °F 100% 29.69 in 10.0 mi SW 15.0 mph - N/A   Overcast
4:51 PM 57.2 °F - 55.4 °F 94% 29.69 in 10.0 mi SW 16.1 mph - N/A   Overcast
4:55 PM 57.2 °F - 56.1 °F 96% 29.69 in 9.0 mi WSW 15.0 mph - 0.00 in   Overcast
4:57 PM 57.2 °F - 55.4 °F 94% 29.70 in 8.0 mi WSW 13.8 mph - N/A Rain Light Rain
5:02 PM 57.2 °F - 55.4 °F 94% 29.70 in 7.0 mi SW 12.7 mph - N/A Rain Light Rain
5:11 PM 57.2 °F - 57.2 °F 100% 29.70 in 10.0 mi SW 12.7 mph - N/A Rain Light Rain
5:12 PM 57.2 °F - 57.2 °F 100% 29.70 in 10.0 mi SW 11.5 mph - N/A   Overcast
5:51 PM 57.2 °F - 55.4 °F 94% 29.71 in 10.0 mi WSW 9.2 mph - N/A   Overcast
5:55 PM 57.0 °F - 56.1 °F 97% 29.71 in 10.0 mi SW 10.4 mph - 0.00 in   Overcast
6:10 PM 55.4 °F - 51.8 °F 88% 29.73 in 10.0 mi WNW 13.8 mph 23.0 mph N/A   Overcast
6:19 PM 55.4 °F - 51.8 °F 88% 29.74 in 10.0 mi WNW 12.7 mph - N/A   Overcast
6:20 PM 55.4 °F - 51.8 °F 88% 29.74 in 10.0 mi WNW 13.8 mph - N/A   Overcast
6:30 PM 55.4 °F - 51.8 °F 88% 29.75 in 10.0 mi WNW 15.0 mph 20.7 mph N/A   Overcast
6:55 PM 53.4 °F - 48.6 °F 84% 29.77 in 10.0 mi WNW 11.5 mph - N/A   Overcast
7:15 PM 51.8 °F - 44.6 °F 76% 29.78 in 10.0 mi WNW 11.5 mph 21.9 mph N/A   Overcast
7:24 PM 51.8 °F - 44.6 °F 76% 29.79 in 10.0 mi WNW 12.7 mph - N/A   Overcast
7:31 PM 51.8 °F - 44.6 °F 76% 29.79 in 10.0 mi WNW 9.2 mph - N/A   Overcast
7:41 PM 51.8 °F - 44.6 °F 76% 29.80 in 10.0 mi West 9.2 mph - N/A   Overcast
7:55 PM 50.7 °F - 44.1 °F 78% 29.81 in 10.0 mi WNW 10.4 mph - N/A   Overcast
8:55 PM 49.1 °F - 40.5 °F 72% 29.82 in 10.0 mi WNW 10.4 mph - N/A   Overcast
9:55 PM 46.9 °F - 38.7 °F 73% 29.83 in 10.0 mi WNW 12.7 mph - N/A   Scattered Clouds
10:55 PM 45.1 °F 40.3 °F 36.3 °F 71% 29.84 in 10.0 mi WNW 9.2 mph - N/A   Partly Cloudy
11:39 PM 44.6 °F 39.7 °F 35.6 °F 71% 29.85 in 10.0 mi WNW 9.2 mph - N/A   Mostly Cloudy
11:42 PM 44.6 °F 39.7 °F 35.6 °F 71% 29.85 in 10.0 mi WNW 9.2 mph - N/A   Mostly Cloudy
11:55 PM 44.2 °F 39.7 °F 35.8 °F 72% 29.85 in 10.0 mi WNW 8.1 mph - N/A   Overcast